Regional Weather Roundup
Issued by NWS Nashville, TN

Home | Current Version | Previous Version | Text Only | Print | Product List | Glossary On
Versions: 1 2 3 4 5 6 7 8 9 10 11 12 13 14 15 16 17 18 19 20 21 22 23 24 25 26 27 28 29 30 31 32 33 34 35 36 37 38 39 40 41 42 43 44 45 46 47 48 49 50
000
ASUS44 KOHX 302315
RWROHX
MIDDLE TENNESSEE HOURLY WEATHER ROUNDUP
NATIONAL WEATHER SERVICE NASHVILLE TN
500 PM CST FRI JAN 30 2015

NOTE: "FAIR" INDICATES FEW OR NO CLOUDS BELOW 12,000 FEET WITH
NO SIGNIFICANT WEATHER AND/OR OBSTRUCTIONS TO VISIBILITY.

* THESE REPORTS ARE NOT UNDER NWS QUALITY CONTROL AND MAY NOT
  REPORT WEATHER SUCH AS PRECIPITATION AND FOG.


TNZ005>011-023>034-057-059-062>066-078-080-310000
...NORTHERN MIDDLE TENNESSEE...

CITY           SKY/WX    TMP DP  RH WIND       PRES   REMARKS
CLARKSVILLE    CLEAR     40  20  44 N9        30.44S WCI  34
CROSSVILLE     CLEAR     36  17  46 N5        30.35R WCI  32
GALLATIN         N/A     41  22  47 N7        30.43S
DICKSON        CLEAR     39  19  45 N7        30.41S WCI  34
LEBANON        CLEAR     40  20  45 NW6       30.40S
LIVINGSTON     CLEAR     37  21  52 N6        30.38  WCI  32
NASHVILLE      PTCLDY    41  19  41 N8        30.43S
WEST NASHVILLE   N/A     39  18  41 N5        30.43S
PORTLAND       CLEAR     37  19  48 N5        30.41S WCI  34
SMYRNA         CLEAR     41  20  43 N8        30.44R
SPARTA         CLEAR     39  21  48 N3        30.38S
$$
TNZ056-058-060-061-075>077-079-093>097-310000
...SOUTHERN MIDDLE TENNESSEE...

CITY           SKY/WX    TMP DP  RH WIND       PRES   REMARKS
COLUMBIA       CLEAR     43  19  39 N7        30.39S
LEWISBURG      CLEAR     41  19  41 N7        30.40S
MCMINNVILLE    CLEAR     39  21  48 N6        30.38F WCI  35
MURFREESBORO   CLEAR     42  20  41 N6        30.41
SHELBYVILLE    CLEAR     39  23  52 N9        30.41S WCI  33
TULLAHOMA      CLEAR     37  18  44 N7        30.39R WCI  32
WINCHESTER     CLEAR     39  21  48 N6        30.38S WCI  35
$$


...KEY TO REMARKS...
VSB - VISIBILITY IN MILES
WCI - WIND CHILL INDEX
HX  - HEAT INDEX



USA.gov is the U.S. government's official web portal to all federal, state and local government web resources and services.